BAW286 KSFO-EGLL

Flight info

Callsign BAW286
Flight time N/A
Altitude 37000
Route SNTNA2 TIPRE Q126 INSLO DCT DTA DCT CKW DCT FAR DCT 50N088W DCT YGL/N0499F390 DCT 56N070W DCT LAKES DCT IRBIM/M085F390 DCT TOXIT DCT 60N050W 60N040W 60N030W 58N020W DCT SUNOT/N0480F390 DCT KESIX DCT APSOV DCT BELZU DCT DUFFY DCT RINGA DCT IOM DCT KELLY L10 WAL UY53 NUGRA
Aircraft A359/H-SDE2E3GHIJ3J4J5LM1ORWXY/LB1D1

Departure

Time N/A
Airport San Francisco International Airport (KSFO)

Arrival

Time 2026-05-04 08:17
Airport London Heathrow Airport (EGLL)
Time Latitude Longitude Altitude Speed Heading
2026-05-04 07:36 54.03639 -4.68925 37050 ft 488 kts 122°
2026-05-04 07:36 54.01720 -4.64175 37049 ft 488 kts 122°
2026-05-04 07:38 53.86378 -4.26238 37054 ft 487 kts 122°
2026-05-04 07:38 53.82535 -4.16855 37055 ft 487 kts 122°
2026-05-04 07:39 53.78669 -4.07440 37049 ft 487 kts 123°
2026-05-04 07:39 53.74794 -3.98058 37050 ft 487 kts 123°
2026-05-04 07:40 53.70911 -3.88693 37049 ft 487 kts 123°
2026-05-04 07:40 53.67019 -3.79338 37051 ft 487 kts 123°
2026-05-04 07:41 53.63100 -3.69954 37045 ft 487 kts 123°
2026-05-04 07:41 53.59205 -3.60648 37044 ft 487 kts 123°
2026-05-04 07:42 53.55297 -3.51360 37044 ft 487 kts 124°
2026-05-04 07:42 53.51374 -3.42078 37047 ft 487 kts 124°
2026-05-04 07:43 53.47445 -3.32813 37046 ft 487 kts 124°
2026-05-04 07:43 53.43497 -3.23532 37047 ft 487 kts 124°
2026-05-04 07:44 53.39546 -3.14276 37046 ft 487 kts 124°
2026-05-04 07:44 53.35564 -3.05118 37046 ft 488 kts 126°
2026-05-04 07:45 53.31475 -2.96009 37049 ft 488 kts 126°
2026-05-04 07:45 53.27390 -2.86949 37048 ft 488 kts 126°
2026-05-04 07:46 53.23324 -2.77896 37048 ft 488 kts 126°
2026-05-04 07:46 53.19241 -2.68822 37044 ft 488 kts 126°
2026-05-04 07:47 53.15154 -2.59782 36384 ft 486 kts 126°
2026-05-04 07:47 53.13104 -2.55274 35540 ft 486 kts 126°
2026-05-04 07:49 52.98698 -2.25835 29439 ft 490 kts 145°
2026-05-04 07:49 52.95836 -2.22835 29334 ft 494 kts 146°
2026-05-04 07:49 52.92927 -2.19806 28832 ft 493 kts 146°
2026-05-04 07:50 52.90040 -2.16801 28408 ft 487 kts 146°
2026-05-04 07:50 52.87184 -2.13829 28050 ft 484 kts 146°
2026-05-04 07:50 52.84332 -2.10859 27692 ft 481 kts 147°
2026-05-04 07:50 52.81512 -2.07926 27354 ft 478 kts 147°
2026-05-04 07:51 52.78712 -2.05018 27015 ft 476 kts 147°
2026-05-04 07:51 52.75919 -2.02119 26676 ft 473 kts 147°
2026-05-04 07:51 52.73135 -1.99228 26335 ft 470 kts 147°
2026-05-04 07:51 52.70360 -1.96351 25993 ft 467 kts 148°
2026-05-04 07:52 52.67627 -1.93524 25666 ft 464 kts 148°
2026-05-04 07:52 52.64907 -1.90714 25335 ft 461 kts 148°
2026-05-04 07:52 52.62192 -1.87916 25004 ft 458 kts 149°
2026-05-04 07:52 52.59488 -1.85136 24676 ft 455 kts 149°
2026-05-04 07:53 52.56802 -1.82380 24347 ft 453 kts 149°
2026-05-04 07:54 52.39106 -1.64406 22255 ft 361 kts 150°
2026-05-04 07:55 52.37027 -1.62251 21980 ft 339 kts 150°
2026-05-04 07:55 52.35060 -1.60227 21751 ft 333 kts 150°
2026-05-04 07:55 52.33114 -1.58243 21499 ft 335 kts 150°
2026-05-04 07:55 52.31098 -1.56197 21264 ft 338 kts 150°
2026-05-04 07:56 52.29106 -1.54178 21008 ft 336 kts 150°
2026-05-04 07:56 52.27125 -1.52172 20750 ft 334 kts 150°
2026-05-04 07:56 52.25156 -1.50179 20483 ft 331 kts 150°
2026-05-04 07:56 52.23222 -1.48227 20209 ft 331 kts 150°
2026-05-04 07:57 52.21296 -1.46113 19944 ft 331 kts 145°
2026-05-04 07:57 52.19509 -1.43727 19601 ft 331 kts 142°
2026-05-04 07:57 52.17764 -1.41290 19255 ft 329 kts 142°
2026-05-04 07:57 52.16037 -1.38868 18922 ft 328 kts 142°
2026-05-04 07:58 52.14301 -1.36436 18587 ft 327 kts 142°
2026-05-04 07:58 52.12574 -1.34025 18245 ft 325 kts 141°
2026-05-04 07:58 52.10866 -1.31642 17898 ft 323 kts 141°
2026-05-04 07:58 52.09161 -1.29268 17562 ft 322 kts 141°
2026-05-04 07:59 52.07465 -1.26909 17238 ft 321 kts 141°
2026-05-04 07:59 52.05773 -1.24561 16900 ft 319 kts 141°
2026-05-04 07:59 52.04102 -1.22242 16590 ft 317 kts 141°
2026-05-04 07:59 52.02426 -1.19918 16266 ft 316 kts 141°
2026-05-04 08:00 52.00756 -1.17606 15942 ft 315 kts 141°
2026-05-04 08:00 51.99096 -1.15306 15627 ft 313 kts 141°
2026-05-04 08:00 51.98039 -1.13841 15410 ft 312 kts 141°
2026-05-04 08:02 51.87379 -0.99100 13637 ft 268 kts 141°
2026-05-04 08:02 51.85982 -0.97157 13367 ft 267 kts 139°
2026-05-04 08:02 51.84821 -0.94812 13096 ft 269 kts 122°
2026-05-04 08:03 51.83960 -0.92119 12800 ft 268 kts 118°
2026-05-04 08:03 51.83157 -0.89412 12536 ft 266 kts 117°
2026-05-04 08:03 51.82360 -0.86730 12294 ft 266 kts 118°
2026-05-04 08:03 51.81551 -0.84044 12051 ft 265 kts 118°
2026-05-04 08:04 51.80741 -0.81375 11808 ft 263 kts 118°
2026-05-04 08:04 51.79928 -0.78713 11570 ft 262 kts 118°
2026-05-04 08:04 51.79117 -0.76069 11348 ft 261 kts 118°
2026-05-04 08:04 51.78311 -0.73439 11103 ft 260 kts 118°
2026-05-04 08:05 51.77509 -0.70832 10859 ft 259 kts 118°
2026-05-04 08:05 51.76716 -0.68253 10627 ft 258 kts 118°
2026-05-04 08:05 51.75923 -0.65675 10401 ft 257 kts 118°
2026-05-04 08:05 51.75124 -0.63083 10154 ft 255 kts 118°
2026-05-04 08:06 51.74358 -0.60598 9923 ft 240 kts 118°
2026-05-04 08:06 51.73627 -0.58226 9694 ft 229 kts 118°
2026-05-04 08:06 51.72917 -0.55946 9548 ft 232 kts 119°
2026-05-04 08:06 51.72070 -0.53731 9309 ft 230 kts 127°
2026-05-04 08:08 51.65513 -0.39442 7853 ft 224 kts 128°
2026-05-04 08:08 51.64577 -0.37414 7645 ft 224 kts 128°
2026-05-04 08:10 51.57203 -0.21416 6153 ft 221 kts 128°
2026-05-04 08:11 51.56252 -0.19365 5993 ft 233 kts 128°
2026-05-04 08:11 51.54279 -0.15145 5227 ft 239 kts 128°
2026-05-04 08:11 51.53154 -0.13237 4697 ft 235 kts 148°
2026-05-04 08:12 51.51625 -0.12646 4212 ft 227 kts 187°
2026-05-04 08:12 51.50164 -0.13513 3835 ft 225 kts 209°
2026-05-04 08:12 51.48899 -0.14968 3489 ft 227 kts 220°
2026-05-04 08:12 51.47922 -0.16877 3290 ft 219 kts 248°
2026-05-04 08:13 51.47710 -0.19192 3132 ft 203 kts 274°
2026-05-04 08:13 51.47834 -0.21366 2887 ft 190 kts 277°
2026-05-04 08:13 51.47904 -0.23475 2609 ft 187 kts 272°
2026-05-04 08:13 51.47901 -0.25573 2336 ft 188 kts 270°
2026-05-04 08:14 51.47884 -0.27667 2083 ft 187 kts 270°
2026-05-04 08:14 51.47872 -0.29744 1830 ft 185 kts 270°
2026-05-04 08:14 51.47860 -0.31713 1567 ft 171 kts 270°
2026-05-04 08:16 51.47761 -0.43625 122 ft 147 kts 273°
2026-05-04 08:16 51.47768 -0.45130 100 ft 123 kts 271°
2026-05-04 08:16 51.47765 -0.46360 97 ft 99 kts 267°
2026-05-04 08:17 51.47754 -0.47003 98 ft 33 kts 268°
2026-05-04 08:17 51.47749 -0.47297 91 ft 16 kts 255°
2026-05-04 08:17 51.47676 -0.47384 94 ft 13 kts 189°
2026-05-04 08:17 51.47646 -0.47388 95 ft 0 kts 180°
2026-05-04 08:19 51.47639 -0.47388 95 ft 6 kts 180°
2026-05-04 08:19 51.47564 -0.47371 94 ft 15 kts 169°
2026-05-04 08:20 51.47498 -0.47431 97 ft 10 kts 254°
2026-05-04 08:20 51.47490 -0.47542 94 ft 11 kts 266°
2026-05-04 08:20 51.47490 -0.47687 92 ft 15 kts 270°
2026-05-04 08:20 51.47490 -0.47746 92 ft 0 kts 270°
2026-05-04 08:21 51.47490 -0.47755 92 ft 3 kts 270°
2026-05-04 08:21 51.47487 -0.47821 92 ft 8 kts 249°
2026-05-04 08:21 51.47421 -0.47871 93 ft 15 kts 188°
2026-05-04 08:21 51.47280 -0.47874 82 ft 24 kts 179°
2026-05-04 08:22 51.47124 -0.47870 92 ft 20 kts 180°
2026-05-04 08:22 51.46980 -0.47869 89 ft 14 kts 179°
2026-05-04 08:24 51.46850 -0.47715 89 ft 0 kts 90°